Time,TemperatureF,DewpointF,PressureIn,WindDirection,WindDirectionDegrees,WindSpeedMPH,WindSpeedGustMPH,Humidity,HourlyPrecipIn,Conditions,Clouds,dailyrainin,SoftwareType,DateUTC
2013-07-08 00:05:00,58.3,56.0,29.96,NE,53,2.0,-999.0,93,-99.99,,,0.00,weatherlink.com 1.10,2013-07-08 04:05:00,
2013-07-08 00:20:00,58.1,56.0,29.97,NE,53,0.0,-999.0,93,-99.99,,,0.00,weatherlink.com 1.10,2013-07-08 04:20:00,
2013-07-08 00:35:00,57.5,55.0,29.97,NE,53,0.0,-999.0,92,-99.99,,,0.00,weatherlink.com 1.10,2013-07-08 04:35:00,
2013-07-08 00:50:00,56.8,55.0,29.97,NE,53,0.0,-999.0,92,-99.99,,,0.00,weatherlink.com 1.10,2013-07-08 04:50:00,
2013-07-08 01:05:00,56.2,54.0,29.97,NE,53,0.0,-999.0,91,-99.99,,,0.00,weatherlink.com 1.10,2013-07-08 05:05:00,
2013-07-08 01:20:00,55.1,53.0,29.98,NE,49,0.0,-999.0,92,-99.99,,,0.00,weatherlink.com 1.10,2013-07-08 05:20:00,
2013-07-08 01:35:00,54.8,53.0,29.97,NE,36,0.0,-999.0,93,-99.99,,,0.00,weatherlink.com 1.10,2013-07-08 05:35:00,
2013-07-08 01:50:00,54.4,53.0,29.97,NE,37,0.0,-999.0,93,-99.99,,,0.00,weatherlink.com 1.10,2013-07-08 05:50:00,
2013-07-08 02:05:00,54.1,53.0,29.96,NE,41,0.0,-999.0,94,-99.99,,,0.00,weatherlink.com 1.10,2013-07-08 06:05:00,
2013-07-08 02:20:00,54.2,53.0,29.95,NE,41,0.0,-999.0,94,-99.99,,,0.00,weatherlink.com 1.10,2013-07-08 06:20:00,
2013-07-08 02:35:00,54.4,53.0,29.96,NE,42,0.0,-999.0,94,-99.99,,,0.00,weatherlink.com 1.10,2013-07-08 06:35:00,
2013-07-08 02:50:00,54.4,53.0,29.96,NE,42,0.0,-999.0,94,-99.99,,,0.00,weatherlink.com 1.10,2013-07-08 06:50:00,
2013-07-08 03:05:00,54.4,53.0,29.96,NE,41,0.0,-999.0,94,-99.99,,,0.00,weatherlink.com 1.10,2013-07-08 07:05:00,
2013-07-08 03:20:00,54.4,53.0,29.96,NE,41,0.0,-999.0,94,-99.99,,,0.00,weatherlink.com 1.10,2013-07-08 07:20:00,
2013-07-08 03:35:00,54.3,53.0,29.96,NE,41,0.0,-999.0,94,-99.99,,,0.00,weatherlink.com 1.10,2013-07-08 07:35:00,
2013-07-08 03:50:00,54.5,53.0,29.96,NE,42,0.0,-999.0,95,-99.99,,,0.00,weatherlink.com 1.10,2013-07-08 07:50:00,
2013-07-08 04:05:00,54.6,53.0,29.95,NE,42,0.0,-999.0,95,-99.99,,,0.00,weatherlink.com 1.10,2013-07-08 08:05:00,
2013-07-08 04:20:00,54.7,53.0,29.94,NE,42,0.0,-999.0,95,-99.99,,,0.00,weatherlink.com 1.10,2013-07-08 08:20:00,
2013-07-08 04:35:00,54.7,53.0,29.94,NE,41,0.0,-999.0,95,-99.99,,,0.00,weatherlink.com 1.10,2013-07-08 08:35:00,
2013-07-08 04:50:00,54.7,53.0,29.94,NE,42,0.0,-999.0,95,-99.99,,,0.00,weatherlink.com 1.10,2013-07-08 08:50:00,
2013-07-08 05:05:00,54.8,53.0,29.95,NE,42,0.0,-999.0,95,-99.99,,,0.00,weatherlink.com 1.10,2013-07-08 09:05:00,
2013-07-08 05:20:00,54.9,54.0,29.96,NE,42,0.0,-999.0,95,-99.99,,,0.00,weatherlink.com 1.10,2013-07-08 09:20:00,
2013-07-08 05:35:00,55.4,54.0,29.96,NE,42,2.0,-999.0,95,-99.99,,,0.01,weatherlink.com 1.10,2013-07-08 09:35:00,
2013-07-08 05:50:00,56.1,55.0,29.95,NE,41,0.0,-999.0,95,-99.99,,,0.01,weatherlink.com 1.10,2013-07-08 09:50:00,
2013-07-08 06:05:00,56.0,55.0,29.95,NE,42,1.0,-999.0,95,-99.99,,,0.10,weatherlink.com 1.10,2013-07-08 10:05:00,
2013-07-08 06:20:00,56.0,55.0,29.95,NE,41,0.0,-999.0,95,-99.99,,,0.18,weatherlink.com 1.10,2013-07-08 10:20:00,
2013-07-08 06:35:00,56.1,55.0,29.96,NE,42,0.0,-999.0,95,-99.99,,,0.27,weatherlink.com 1.10,2013-07-08 10:35:00,
2013-07-08 06:50:00,56.0,55.0,29.98,NE,42,0.0,-999.0,95,-99.99,,,0.31,weatherlink.com 1.10,2013-07-08 10:50:00,
2013-07-08 07:05:00,55.8,54.0,29.97,NE,41,0.0,-999.0,95,-99.99,,,0.38,weatherlink.com 1.10,2013-07-08 11:05:00,
2013-07-08 07:20:00,55.8,54.0,29.98,NE,42,0.0,-999.0,95,-99.99,,,0.40,weatherlink.com 1.10,2013-07-08 11:20:00,
2013-07-08 07:35:00,55.6,54.0,29.97,NE,41,0.0,-999.0,95,-99.99,,,0.41,weatherlink.com 1.10,2013-07-08 11:35:00,
2013-07-08 07:50:00,55.5,54.0,29.96,NE,42,0.0,-999.0,95,-99.99,,,0.42,weatherlink.com 1.10,2013-07-08 11:50:00,
2013-07-08 08:05:00,55.7,54.0,29.96,NE,42,0.0,-999.0,95,-99.99,,,0.42,weatherlink.com 1.10,2013-07-08 12:05:00,
2013-07-08 08:20:00,56.6,56.0,29.97,NE,41,0.0,-999.0,96,-99.99,,,0.43,weatherlink.com 1.10,2013-07-08 12:20:00,
2013-07-08 08:35:00,56.7,56.0,29.98,ENE,69,1.0,-999.0,96,-99.99,,,0.43,weatherlink.com 1.10,2013-07-08 12:35:00,
2013-07-08 08:50:00,56.1,55.0,29.99,NE,46,0.0,-999.0,95,-99.99,,,0.43,weatherlink.com 1.10,2013-07-08 12:50:00,
2013-07-08 09:05:00,56.2,55.0,29.98,NE,46,0.0,-999.0,95,-99.99,,,0.43,weatherlink.com 1.10,2013-07-08 13:05:00,
2013-07-08 09:20:00,56.4,55.0,29.98,NE,46,0.0,-999.0,95,-99.99,,,0.43,weatherlink.com 1.10,2013-07-08 13:20:00,
2013-07-08 09:35:00,56.2,55.0,29.98,NE,46,0.0,-999.0,95,-99.99,,,0.43,weatherlink.com 1.10,2013-07-08 13:35:00,
2013-07-08 09:50:00,56.0,55.0,29.98,NE,48,0.0,-999.0,95,-99.99,,,0.43,weatherlink.com 1.10,2013-07-08 13:50:00,
2013-07-08 10:05:00,56.0,55.0,29.98,NE,49,0.0,-999.0,95,-99.99,,,0.43,weatherlink.com 1.10,2013-07-08 14:05:00,
2013-07-08 10:20:00,56.0,55.0,29.98,NE,49,0.0,-999.0,95,-99.99,,,0.43,weatherlink.com 1.10,2013-07-08 14:20:00,
2013-07-08 10:35:00,56.5,55.0,29.98,NE,49,0.0,-999.0,96,-99.99,,,0.43,weatherlink.com 1.10,2013-07-08 14:35:00,
2013-07-08 10:50:00,57.6,57.0,29.98,NE,49,0.0,-999.0,96,-99.99,,,0.43,weatherlink.com 1.10,2013-07-08 14:50:00,
2013-07-08 11:05:00,58.7,58.0,29.98,NE,46,0.0,-999.0,96,-99.99,,,0.43,weatherlink.com 1.10,2013-07-08 15:05:00,
2013-07-08 11:20:00,59.1,58.0,29.98,NE,47,1.0,-999.0,96,-99.99,,,0.43,weatherlink.com 1.10,2013-07-08 15:20:00,
2013-07-08 11:35:00,59.6,59.0,29.99,NE,46,0.0,-999.0,96,-99.99,,,0.43,weatherlink.com 1.10,2013-07-08 15:35:00,
2013-07-08 11:50:00,61.2,60.0,29.99,NE,47,0.0,-999.0,96,-99.99,,,0.43,weatherlink.com 1.10,2013-07-08 15:50:00,
2013-07-08 12:05:00,62.5,61.0,29.98,NE,46,1.0,-999.0,96,-99.99,,,0.43,weatherlink.com 1.10,2013-07-08 16:05:00,
2013-07-08 12:20:00,63.4,62.0,29.98,NE,46,0.0,-999.0,95,-99.99,,,0.43,weatherlink.com 1.10,2013-07-08 16:20:00,
2013-07-08 12:35:00,64.5,63.0,29.98,NE,46,1.0,-999.0,94,-99.99,,,0.43,weatherlink.com 1.10,2013-07-08 16:35:00,
2013-07-08 12:50:00,65.0,62.0,29.98,NE,42,0.0,-999.0,90,-99.99,,,0.43,weatherlink.com 1.10,2013-07-08 16:50:00,
2013-07-08 13:05:00,64.5,61.0,29.99,NE,37,1.0,-999.0,87,-99.99,,,0.43,weatherlink.com 1.10,2013-07-08 17:05:00,
2013-07-08 13:20:00,63.5,60.0,30.00,NE,42,0.0,-999.0,88,-99.99,,,0.43,weatherlink.com 1.10,2013-07-08 17:20:00,
2013-07-08 13:35:00,64.0,60.0,30.00,NE,42,0.0,-999.0,88,-99.99,,,0.43,weatherlink.com 1.10,2013-07-08 17:35:00,
2013-07-08 13:50:00,63.6,59.0,30.00,NE,38,1.0,-999.0,86,-99.99,,,0.43,weatherlink.com 1.10,2013-07-08 17:50:00,
2013-07-08 14:05:00,62.8,59.0,30.01,NE,42,3.0,-999.0,87,-99.99,,,0.43,weatherlink.com 1.10,2013-07-08 18:05:00,
2013-07-08 14:20:00,61.3,57.0,30.01,ENE,67,3.0,-999.0,87,-99.99,,,0.43,weatherlink.com 1.10,2013-07-08 18:20:00,
2013-07-08 14:35:00,61.0,58.0,30.01,ENE,62,1.0,-999.0,88,-99.99,,,0.43,weatherlink.com 1.10,2013-07-08 18:35:00,
2013-07-08 14:50:00,61.4,58.0,30.01,ENE,61,2.0,-999.0,89,-99.99,,,0.43,weatherlink.com 1.10,2013-07-08 18:50:00,
2013-07-08 15:35:00,62.4,58.0,30.00,NE,42,1.0,-999.0,86,-99.99,,,0.43,weatherlink.com 1.10,2013-07-08 19:35:00,
2013-07-08 16:05:00,63.7,59.0,30.00,NE,52,2.0,-999.0,84,-99.99,,,0.43,weatherlink.com 1.10,2013-07-08 20:05:00,
2013-07-08 16:50:00,62.3,58.0,30.01,ENE,76,0.0,-999.0,85,-99.99,,,0.43,weatherlink.com 1.10,2013-07-08 20:50:00,
2013-07-08 18:05:00,62.5,58.0,30.00,NE,41,3.0,-999.0,85,-99.99,,,0.43,weatherlink.com 1.10,2013-07-08 22:05:00,
2013-07-08 18:35:00,62.7,58.0,30.00,NE,46,0.0,-999.0,85,-99.99,,,0.43,weatherlink.com 1.10,2013-07-08 22:35:00,
2013-07-08 18:50:00,62.2,57.0,30.00,NE,49,0.0,-999.0,84,-99.99,,,0.43,weatherlink.com 1.10,2013-07-08 22:50:00,
2013-07-08 19:05:00,60.9,56.0,30.00,NE,49,0.0,-999.0,85,-99.99,,,0.43,weatherlink.com 1.10,2013-07-08 23:05:00,
2013-07-08 19:20:00,59.8,56.0,30.01,NE,49,0.0,-999.0,86,-99.99,,,0.43,weatherlink.com 1.10,2013-07-08 23:20:00,
2013-07-08 19:35:00,58.7,55.0,30.01,NE,48,0.0,-999.0,88,-99.99,,,0.43,weatherlink.com 1.10,2013-07-08 23:35:00,
2013-07-08 19:50:00,58.2,55.0,30.01,NE,49,0.0,-999.0,88,-99.99,,,0.43,weatherlink.com 1.10,2013-07-08 23:50:00,
2013-07-08 20:35:00,57.3,55.0,30.02,NE,49,0.0,-999.0,90,-99.99,,,0.43,weatherlink.com 1.10,2013-07-09 00:35:00,
2013-07-08 20:51:00,57.2,54.0,30.02,NE,48,0.0,-999.0,90,-99.99,,,0.43,weatherlink.com 1.10,2013-07-09 00:51:00,
2013-07-08 21:35:00,56.7,55.0,30.03,NE,49,0.0,-999.0,92,-99.99,,,0.43,weatherlink.com 1.10,2013-07-09 01:35:00,
2013-07-08 21:50:00,56.4,54.0,30.03,NE,49,0.0,-999.0,92,-99.99,,,0.43,weatherlink.com 1.10,2013-07-09 01:50:00,
2013-07-08 22:20:00,56.6,55.0,30.03,NE,48,0.0,-999.0,93,-99.99,,,0.43,weatherlink.com 1.10,2013-07-09 02:20:00,
2013-07-08 22:35:00,56.7,55.0,30.03,NE,49,0.0,-999.0,93,-99.99,,,0.43,weatherlink.com 1.10,2013-07-09 02:35:00,
2013-07-08 23:05:00,57.2,56.0,30.02,NE,49,0.0,-999.0,94,-99.99,,,0.43,weatherlink.com 1.10,2013-07-09 03:05:00,
2013-07-08 23:35:00,57.1,55.0,30.02,NE,48,0.0,-999.0,93,-99.99,,,0.43,weatherlink.com 1.10,2013-07-09 03:35:00,